Regional Weather Roundup
Issued by NWS

Home | Current Version | Previous Version | Text Only | Print | Product List | Glossary Off
Versions: 1 2 3 4 5 6 7 8 9 10 11 12 13 14 15 16 17 18 19 20 21 22 23 24 25 26 27 28 29 30 31 32 33 34 35 36 37 38 39 40 41 42 43 44 45 46 47 48 49 50

000
ASUS43 KMKX 271700
RWRWI

WISCONSIN REGIONAL WEATHER ROUNDUP
NATIONAL WEATHER SERVICE MILWAUKEE/SULLIVAN WI
1200 PM CDT MON MAR 27 2017

NOTE: "FAIR" INDICATES FEW OR NO CLOUDS BELOW 12,000 FEET WITH NO
SIGNIFICANT WEATHER AND/OR OBSTRUCTIONS TO VISIBILITY.

WIZ001-002-006>008-014>016-023>028-271800-
NORTHWEST WISCONSIN

CITY           SKY/WX    TMP DP  RH WIND       PRES   REMARKS
SUPERIOR ARPT  CLOUDY    41  37  86 CALM      29.99S
ASHLAND        NOT AVBL
HAYWARD        NOT AVBL
SIREN          MOSUNNY   47  35  63 N7        29.97F
CUMBERLAND     CLOUDY    41  36  81 N3        29.96S
RICE LAKE      CLOUDY    41  37  86 CALM      29.98S
CHETEK         CLOUDY    40  37  86 CALM      29.97S
LADYSMITH      CLOUDY    40  37  90 N6        29.97S
EAU CLAIRE     NOT AVBL
MENOMONIE      CLOUDY    41  36  81 N7        29.98R
NEW RICHMOND   CLOUDY    45  36  71 NE6       29.98S
OSCEOLA        MOSUNNY   46  37  73 NW5       30.00S
$$

WIZ003>005-009-010-017-018-271800-
NORTH CENTRAL WISCONSIN

CITY           SKY/WX    TMP DP  RH WIND       PRES   REMARKS
MANITOWISH WTR CLOUDY    38  37  99 NE5       29.94S WCI  34
ARBOR VITAE    CLOUDY    37  35  90 N5        29.94R WCI  34
WOODRUFF       CLOUDY    37  35  90 N5        29.94R WCI  34
RHINELANDER    NOT AVBL
EAGLE RIVER    CLOUDY    37  34  89 E5        29.94R WCI  34
LAND O LAKES   CLOUDY    36  33  92 N3        29.96R
PHILLIPS       CLOUDY    38  35  87 NE3       29.94R
TOMAHAWK       CLOUDY    37  35  90 N3        29.94S
MEDFORD        CLOUDY    37  34  89 CALM      29.93S
MERRILL        CLOUDY    37  35  93 CALM      29.95R
$$

WIZ029-030-035-036-043>047-271800-
CENTRAL WISCONSIN

CITY           SKY/WX    TMP DP  RH WIND       PRES   REMARKS
WAUSAU         NOT AVBL
MOSINEE        NOT AVBL
MARSHFIELD     NOT AVBL
STEVENS POINT  CLOUDY    39  38  96 CALM      29.94S
WAUPACA        CLOUDY    45  39  81 CALM      29.95S
WAUTOMA        NOT AVBL
WISC RAPIDS    NOT AVBL
CAMP DOUGLAS   NOT AVBL
$$

WIZ011>013-019>022-031-037>040-048>050-271800-
NORTHEAST WISCONSIN

CITY           SKY/WX    TMP DP  RH WIND       PRES   REMARKS
ANTIGO         CLOUDY    37  35  95 NE5       29.93S WCI  33
SHAWANO        CLOUDY    42  37  82 NE3       29.95S
OCONTO         CLOUDY    39  35  88 SE6       29.95F WCI  34
STURGEON BAY   NOT AVBL
GREEN BAY      NOT AVBL
MANITOWOC      NOT AVBL
APPLETON       CLOUDY    39  39 100 VRB5      29.93S
CLINTONVILLE   CLOUDY    41  37  87 CALM      29.95R
OSHKOSH        CLOUDY    42  38  85 SE6       29.94S
$$

WIZ032>034-041-042-053>061-271800-
SOUTHWEST WISCONSIN

CITY           SKY/WX    TMP DP  RH WIND       PRES   REMARKS
LA CROSSE      NOT AVBL
SPARTA         CLOUDY    42  40  93 NE3       29.96S
VIROQUA        CLOUDY    42  42 100 N3        29.94S
BOSCOBEL       NOT AVBL
PRAIRIE DU CHI CLOUDY    44  42  95 NW7       29.95R FOG
PLATTEVILLE    CLOUDY    46  45  93 NE3       29.94R
$$

WIZ056-057-062-063-064-067-068-271800-
SOUTH CENTRAL WISCONSIN

CITY           SKY/WX    TMP DP  RH WIND       PRES   REMARKS
REEDSBURG      CLOUDY    42  42  99 CALM      29.94R
BARABOO/DELLS  CLOUDY    43  40  89 CALM      29.94R
LONE ROCK      NOT AVBL
MINERAL POINT  CLOUDY    46  46 100 NE6       29.92F
MADISON        NOT AVBL
MIDDLETON      CLOUDY    46  42  89 E3        29.94S
WATERTOWN      CLOUDY    44  43  95 NE6       29.93F
MONROE         CLOUDY    45  41  87 E5        29.93S
JANESVILLE     NOT AVBL
$$

WIZ051-052-058>065-066-070>072-271800-
SOUTHEAST WISCONSIN

CITY           SKY/WX    TMP DP  RH WIND       PRES   REMARKS
MILWAUKEE      NOT AVBL
WAUKESHA       CLOUDY    43  39  87 CALM      29.95F
MILWAUKEE/TIMM CLOUDY    45  37  76 N5        29.95F
RACINE         CLOUDY    44  39  82 NE8       29.97S
KENOSHA        NOT AVBL
FOND DU LAC    CLOUDY    43  37  79 SE3       29.94F
SHEBOYGAN      NOT AVBL
WEST BEND      CLOUDY    43  41  93 CALM      29.95S
JUNEAU         CLOUDY    43  40  89 NE3       29.95S
$$

LSZ147-162-271800-
LAKE SUPERIOR

STATION/POSITION TIME  TEMP    WIND        PRES    WAVE
                       AIR SEA DIR/SP/G            HT/PER
                 (UTC) (F)     (DEG/KT/KT) (MB)    (FT/S)
DEVILS ISLAND    1600   33     240/ 10/ 12 1016.4R
PORT WING        1540   36     290/  4/  7 1016.3R
SAXON HARBOR     1540   34     360/  5/  6 1015.6R
$$

LMZ867-665-643>646-271800-
LAKE MICHIGAN

STATION/POSITION TIME  TEMP    WIND        PRES    WAVE
                       AIR SEA DIR/SP/G            HT/PER
                 (UTC) (F)     (DEG/KT/KT) (MB)    (FT/S)
CHAMBERS ISLAND  1630   35      40/  4/  4 1014.2S
NORTHPORT PIER   1640   35     310/  5/  9 1014.6R
KEWAUNEE LAKESHO 1630   38      CALM  /  2 1013.9F
SHEBOYGAN LAKESH 1600   39      70/  3/  4 1014.8R
PORT WASHINGTON  1530   40     100/  2/  3 1015.6S
MILWAUKEE LAKESH 1630   40      10/  1/  2   N/A
KENOSHA   LAKESH 1600   40      40/ 10/ 11 1014.6
$$

TC  - TEMPERATURE IN CELSIUS
VSB - VISIBILITY IN STATUTE MILES
WCI - WIND CHILL INDEX
HX  - HEAT INDEX




USA.gov is the U.S. government's official web portal to all federal, state and local government web resources and services.